GW4034 Weather Reports


Display with metric or nautical units.
time (UTC)temp
F
wind
direction
speed
MPH
gust
MPH
rain 1hr
in
rain 24hr
in
rain mn
in
humidity
%
barometer
mb
20260905081748 69 259 0.0 0.0 0.00 0.00 0.00 79 1014.2
20260905081243 69 265 1.0 1.0 0.00 0.00 0.00 79 1014.3
20260905080742 69 246 0.0 1.0 0.00 0.00 0.00 79 1014.4
20260905080237 69 234 0.0 0.0 0.00 0.00 0.00 79 1014.4
20260905075736 69 242 1.0 1.0 0.00 0.00 0.00 78 1014.4
20260905075235 69 282 1.0 2.0 0.00 0.00 0.00 78 1014.3
20260905074734 69 258 1.0 1.0 0.00 0.00 0.00 78 1014.2
20260905074230 69 220 0.0 0.0 0.00 0.00 0.00 78 1014.3
20260905073726 69 223 0.0 0.0 0.00 0.00 0.00 78 1014.1
20260905073221 69 241 0.0 0.0 0.00 0.00 0.00 78 1014.3
20260905072720 69 235 0.0 0.0 0.00 0.00 0.00 78 1014.3
20260905072216 69 235 0.0 0.0 0.00 0.00 0.00 78 1014.4
20260905071712 69 251 1.0 2.0 0.00 0.00 0.00 78 1014.3
20260905071208 69 228 0.0 0.0 0.00 0.00 0.00 79 1014.4
20260905070703 69 236 0.0 0.0 0.00 0.00 0.00 78 1014.3
20260905070159 69 225 0.0 0.0 0.00 0.00 0.00 78 1014.2
20260905065657 69 213 0.0 0.0 0.00 0.00 0.00 77 1014.5
20260905065152 70 218 0.0 0.0 0.00 0.00 0.00 77 1014.4
20260905064647 70 334 1.0 2.0 0.00 0.00 0.00 76 1014.3
20260905064143 70 241 0.0 0.0 0.00 0.00 0.00 76 1014.7
20260905063641 70 308 1.0 1.0 0.00 0.00 0.00 75 1014.6
20260905063137 70 7 3.0 4.0 0.00 0.00 0.00 75 1014.6
20260905062633 70 305 1.0 1.0 0.00 0.00 0.00 75 1014.5
20260905062132 70 324 1.0 1.0 0.00 0.00 0.00 76 1014.8
20260905061626 69 235 0.0 1.0 0.00 0.00 0.00 77 1014.5
20260905061127 69 299 1.0 1.0 0.00 0.00 0.00 79 1014.6
20260905060622 69 234 0.0 0.0 0.00 0.00 0.00 80 1014.6
20260905060119 69 222 0.0 0.0 0.00 0.00 0.00 80 1014.7
20260905055617 69 212 0.0 0.0 0.00 0.00 0.00 80 1014.6
20260905055112 69 213 0.0 0.0 0.00 0.00 0.00 80 1014.8
20260905054608 69 226 0.0 0.0 0.00 0.00 0.00 80 1014.8
20260905054103 69 226 0.0 0.0 0.00 0.00 0.00 80 1015.0
20260905053602 69 221 0.0 0.0 0.00 0.00 0.00 80 1014.8
20260905053057 69 236 0.0 0.0 0.00 0.00 0.00 81 1015.0
20260905052556 69 233 0.0 0.0 0.00 0.00 0.00 80 1014.8
20260905052046 69 224 0.0 0.0 0.00 0.00 0.00 80 1014.8
20260905051542 69 236 0.0 0.0 0.00 0.00 0.00 80 1015.1
20260905051038 70 224 0.0 0.0 0.00 0.00 0.00 80 1015.0
20260905050534 70 235 0.0 0.0 0.00 0.00 0.00 79 1015.0
20260905050031 70 205 0.0 0.0 0.00 0.00 0.00 79 1015.0
20260905045525 70 204 0.0 0.0 0.00 0.00 0.00 78 1015.2
20260905045020 70 204 0.0 0.0 0.00 0.00 0.00 78 1015.2
20260905044514 70 220 0.0 0.0 0.00 0.00 0.00 77 1015.4
20260905044009 70 221 0.0 0.0 0.00 0.00 0.00 77 1015.1
20260905043508 71 223 0.0 0.0 0.00 0.00 0.00 77 1015.4
20260905043003 71 223 0.0 0.0 0.00 0.00 0.00 76 1015.3
20260905042502 71 226 0.0 0.0 0.00 0.00 0.00 75 1015.2
20260905041952 72 224 0.0 0.0 0.00 0.00 0.00 75 1015.4
20260905041448 72 231 0.0 0.0 0.00 0.00 0.00 74 1015.3
20260905040942 72 274 1.0 1.0 0.00 0.00 0.00 74 1015.2
20260905040436 72 284 2.0 3.0 0.00 0.00 0.00 74 1015.3
20260905035936 72 26 2.0 3.0 0.00 0.04 0.04 74 1015.3
20260905035431 72 308 2.0 3.0 0.00 0.04 0.04 75 1015.1
20260905034928 71 6 1.0 2.0 0.00 0.04 0.04 76 1015.3
20260905034423 71 234 0.0 0.0 0.00 0.04 0.04 77 1015.4
20260905033922 72 271 0.0 0.0 0.00 0.04 0.04 76 1015.4
20260905033417 72 281 1.0 1.0 0.00 0.04 0.04 76 1015.4
20260905032917 72 15 1.0 1.0 0.00 0.04 0.04 76 1015.4
20260905032412 72 242 0.0 0.0 0.00 0.04 0.04 76 1015.4
20260905031906 71 327 1.0 1.0 0.00 0.04 0.04 76 1015.4
20260905031357 72 253 0.0 1.0 0.00 0.04 0.04 76 1015.5
20260905030852 71 255 0.0 1.0 0.00 0.04 0.04 77 1015.3
20260905030348 71 303 1.0 2.0 0.00 0.04 0.04 77 1015.4
20260905025847 71 258 1.0 2.0 0.00 0.04 0.04 78 1015.2
20260905025342 71 234 0.0 0.0 0.00 0.04 0.04 78 1015.3
20260905024838 71 253 0.0 1.0 0.00 0.04 0.04 78 1015.3
20260905024333 71 234 0.0 0.0 0.00 0.04 0.04 78 1015.0
20260905023829 71 229 1.0 1.0 0.00 0.04 0.04 78 1015.2
20260905023324 70 234 0.0 0.0 0.00 0.04 0.04 78 1015.1
20260905022822 70 241 0.0 1.0 0.00 0.04 0.04 79 1015.2
20260905022319 70 233 0.0 0.0 0.00 0.04 0.04 79 1015.2
20260905021818 70 237 0.0 0.0 0.00 0.04 0.04 79 1015.2
20260905021313 70 233 0.0 0.0 0.00 0.04 0.04 79 1015.2
20260905020808 70 260 0.0 1.0 0.00 0.04 0.04 79 1015.3
20260905020303 70 307 1.0 2.0 0.00 0.04 0.04 80 1015.4
20260905015801 70 239 0.0 1.0 0.00 0.04 0.04 80 1015.4
20260905015257 71 257 1.0 1.0 0.00 0.04 0.04 80 1015.3
20260905014755 71 271 0.0 1.0 0.00 0.04 0.04 79 1015.2
20260905014251 71 241 0.0 1.0 0.00 0.04 0.04 79 1015.2
20260905013746 71 233 0.0 0.0 0.00 0.04 0.04 79 1015.4
20260905013237 71 225 0.0 0.0 0.00 0.04 0.04 77 1015.3
20260905012732 72 219 0.0 0.0 0.00 0.04 0.04 76 1015.4
20260905012227 72 221 0.0 0.0 0.00 0.04 0.04 76 1015.4
20260905011725 72 222 0.0 0.0 0.00 0.04 0.04 74 1015.2
20260905011220 73 223 0.0 0.0 0.00 0.04 0.04 74 1015.4
20260905010720 73 228 0.0 0.0 0.00 0.04 0.04 73 1015.5
20260905010215 73 245 0.0 0.0 0.00 0.04 0.04 73 1015.5
20260905005711 73 230 0.0 1.0 0.00 0.04 0.04 73 1015.5
20260905005206 73 239 0.0 0.0 0.00 0.04 0.04 74 1015.5
20260905004701 73 235 0.0 0.0 0.00 0.04 0.04 74 1015.2
20260905004156 73 231 0.0 0.0 0.00 0.04 0.04 75 1015.3
20260905003651 73 244 0.0 0.0 0.00 0.04 0.04 74 1015.4
20260905003147 73 233 0.0 0.0 0.00 0.04 0.04 74 1015.1
20260905002642 74 227 0.0 0.0 0.00 0.04 0.04 73 1015.1
20260905002137 74 224 0.0 0.0 0.00 0.04 0.04 73 1015.3
20260905001633 73 224 0.0 0.0 0.00 0.04 0.04 75 1015.2
20260905001132 73 225 0.0 0.0 0.00 0.04 0.04 75 1015.2
20260905000627 74 222 0.0 0.0 0.00 0.04 0.04 74 1014.9
20260905000123 74 223 0.0 0.0 0.00 0.04 0.04 74 1015.0
20260904235623 74 224 0.0 0.0 0.00 0.04 0.04 73 1015.2
20260904235122 75 228 0.0 0.0 0.00 0.04 0.04 73 1015.0
20260904234617 75 223 0.0 0.0 0.00 0.04 0.04 71 1015.1
20260904234113 76 222 0.0 0.0 0.00 0.04 0.04 70 1015.1
20260904233609 76 223 0.0 0.0 0.00 0.04 0.04 69 1015.1
20260904233104 77 221 0.0 0.0 0.00 0.04 0.04 68 1014.9
20260904232600 78 227 0.0 0.0 0.00 0.04 0.04 66 1015.1
20260904232056 78 224 0.0 0.0 0.00 0.04 0.04 65 1014.9
20260904231552 78 226 0.0 0.0 0.00 0.04 0.04 64 1014.8
20260904231047 79 223 0.0 0.0 0.00 0.04 0.04 63 1014.7
20260904230546 79 268 1.0 2.0 0.00 0.04 0.04 63 1014.8
20260904230042 79 249 1.0 1.0 0.00 0.04 0.04 63 1014.8
20260904225539 80 226 1.0 2.0 0.00 0.04 0.04 63 1014.7
20260904225039 80 220 0.0 0.0 0.00 0.04 0.04 64 1014.8
20260904224534 80 257 3.0 3.0 0.00 0.04 0.04 62 1015.0
20260904224034 80 261 1.0 2.0 0.00 0.04 0.04 62 1014.9
20260904223533 81 240 0.0 0.0 0.00 0.04 0.04 61 1014.8
20260904223029 83 241 1.0 1.0 0.00 0.04 0.04 59 1014.9
20260904222524 83 249 2.0 2.0 0.00 0.04 0.04 59 1014.9
20260904222019 83 276 0.0 1.0 0.00 0.04 0.04 59 1014.9
20260904221514 83 295 0.0 1.0 0.00 0.04 0.04 58 1014.7
20260904221009 82 233 1.0 1.0 0.00 0.04 0.04 59 1015.0
20260904220509 83 235 1.0 1.0 0.00 0.04 0.04 58 1014.6
20260904220005 83 0 3.0 4.0 0.00 0.04 0.04 57 1014.7
20260904215459 83 187 2.0 3.0 0.00 0.04 0.04 58 1014.6
20260904214954 83 275 2.0 3.0 0.00 0.04 0.04 58 1014.5
20260904214450 83 265 1.0 2.0 0.00 0.04 0.04 58 1014.7
20260904213944 84 244 1.0 1.0 0.00 0.04 0.04 58 1014.7
20260904213438 83 257 5.0 6.0 0.00 0.04 0.04 58 1014.6
20260904212935 84 330 3.0 3.0 0.00 0.04 0.04 57 1014.5
20260904212434 84 281 2.0 3.0 0.00 0.04 0.04 57 1014.5
20260904211930 83 321 3.0 3.0 0.00 0.04 0.04 58 1014.6
20260904211429 83 253 0.0 0.0 0.00 0.04 0.04 58 1014.4
20260904210925 83 26 2.0 3.0 0.00 0.04 0.04 57 1014.5
20260904210424 84 343 1.0 2.0 0.00 0.04 0.04 58 1014.7
20260904205920 85 224 2.0 3.0 0.00 0.04 0.04 55 1014.5
20260904205415 85 246 2.0 3.0 0.00 0.04 0.04 56 1014.6
20260904204912 84 304 3.0 4.0 0.00 0.04 0.04 55 1014.8
20260904204408 84 327 2.0 3.0 0.00 0.04 0.04 56 1014.9
20260904203904 83 226 1.0 1.0 0.00 0.04 0.04 57 1015.0
20260904203400 83 337 4.0 6.0 0.00 0.04 0.04 57 1015.0
20260904202856 82 228 3.0 4.0 0.00 0.04 0.04 57 1015.1
20260904202351 83 274 2.0 2.0 0.00 0.04 0.04 60 1015.0
20260904201847 84 308 2.0 2.0 0.00 0.04 0.04 57 1014.9
20260904201342 84 253 1.0 1.0 0.00 0.04 0.04 56 1015.0
20260904200837 84 212 3.0 4.0 0.00 0.04 0.04 56 1015.0
20260904200335 84 237 1.0 1.0 0.00 0.04 0.04 56 1015.0
20260904195830 84 331 1.0 2.0 0.00 0.04 0.04 56 1015.0
20260904195329 85 329 1.0 2.0 0.00 0.04 0.04 56 1014.9
20260904194823 84 284 3.0 3.0 0.00 0.04 0.04 56 1014.9
20260904194323 85 242 3.0 4.0 0.00 0.04 0.04 58 1015.0
20260904193818 85 338 4.0 4.0 0.00 0.04 0.04 56 1014.8
20260904193314 85 246 1.0 1.0 0.00 0.04 0.04 55 1014.8
20260904192809 85 232 1.0 2.0 0.00 0.04 0.04 56 1014.9
20260904192306 85 293 2.0 2.0 0.00 0.04 0.04 55 1015.1
20260904191801 85 299 1.0 2.0 0.00 0.04 0.04 58 1015.2
20260904191257 85 246 2.0 2.0 0.00 0.04 0.04 55 1015.2
20260904190753 84 294 0.0 1.0 0.00 0.04 0.04 58 1015.2
20260904190249 84 352 2.0 3.0 0.00 0.04 0.04 57 1015.5
20260904185745 84 104 0.0 0.0 0.00 0.04 0.04 60 1015.5
20260904185240 84 332 3.0 6.0 0.00 0.04 0.04 59 1015.7
20260904184738 83 294 4.0 4.0 0.00 0.04 0.04 60 1015.6
20260904184235 83 39 1.0 2.0 0.00 0.04 0.04 60 1015.5
20260904183730 83 222 0.0 1.0 0.00 0.04 0.04 65 1015.5
20260904183225 82 19 1.0 3.0 0.00 0.04 0.04 63 1015.6
20260904182720 83 245 1.0 2.0 0.00 0.04 0.04 61 1015.6
20260904182215 84 174 1.0 1.0 0.00 0.04 0.04 61 1015.7
20260904181711 84 315 7.0 9.0 0.00 0.04 0.04 59 1015.6
20260904181210 82 256 3.0 3.0 0.00 0.04 0.04 61 1015.5
20260904180706 82 333 1.0 1.0 0.00 0.04 0.04 64 1015.7
20260904180201 82 302 2.0 2.0 0.00 0.04 0.04 64 1015.6
20260904175700 81 267 1.0 1.0 0.00 0.04 0.04 65 1015.4
20260904175159 81 353 1.0 2.0 0.00 0.04 0.04 65 1015.6
20260904174653 82 32 2.0 3.0 0.00 0.04 0.04 63 1015.5
20260904174149 84 134 0.0 1.0 0.00 0.04 0.04 64 1015.7
20260904173645 83 253 3.0 3.0 0.00 0.04 0.04 62 1015.5
20260904173140 83 249 7.0 11.0 0.00 0.04 0.04 63 1015.4
20260904172637 81 286 2.0 3.0 0.00 0.04 0.04 64 1015.5
20260904172135 82 21 2.0 3.0 0.00 0.04 0.04 63 1015.4
20260904171631 83 126 1.0 1.0 0.00 0.04 0.04 63 1015.4
20260904171126 84 280 2.0 3.0 0.00 0.04 0.04 63 1015.5
20260904170622 83 268 1.0 1.0 0.00 0.04 0.04 66 1015.5
20260904170118 83 327 3.0 4.0 0.00 0.04 0.04 64 1015.5
20260904165616 82 278 1.0 2.0 0.00 0.04 0.04 68 1015.8
20260904165115 82 222 0.0 1.0 0.00 0.04 0.04 67 1015.8
20260904164610 81 331 1.0 1.0 0.00 0.04 0.04 67 1015.8
20260904164106 81 269 1.0 2.0 0.00 0.04 0.04 67 1015.7
20260904163601 81 338 6.0 8.0 0.00 0.04 0.04 66 1015.5
20260904163056 82 170 2.0 4.0 0.00 0.04 0.04 63 1015.4
20260904162556 82 217 4.0 6.0 0.00 0.04 0.04 62 1015.6
20260904162051 82 353 2.0 3.0 0.00 0.04 0.04 64 1015.7
20260904161545 83 21 3.0 3.0 0.00 0.04 0.04 63 1015.6
20260904161041 82 326 3.0 4.0 0.00 0.04 0.04 64 1015.8
20260904160536 82 260 2.0 2.0 0.00 0.04 0.04 65 1015.8
20260904160032 82 270 1.0 2.0 0.00 0.04 0.04 65 1015.8
20260904155531 82 71 3.0 6.0 0.00 0.04 0.04 65 1015.7
20260904155026 82 254 5.0 7.0 0.00 0.04 0.04 64 1015.8
20260904154520 82 308 4.0 6.0 0.00 0.04 0.04 66 1015.7
20260904154015 82 23 5.0 6.0 0.00 0.04 0.04 65 1015.8
20260904153515 82 182 1.0 1.0 0.00 0.04 0.04 69 1016.0
20260904153012 81 294 5.0 9.0 0.00 0.04 0.04 67 1015.8
20260904152507 82 324 2.0 3.0 0.00 0.04 0.04 69 1016.0
20260904152002 81 13 4.0 6.0 0.00 0.04 0.04 69 1015.9
20260904151456 80 58 5.0 9.0 0.00 0.04 0.04 70 1016.2
20260904150951 81 5 6.0 9.0 0.00 0.04 0.04 70 1015.9
20260904150446 81 263 3.0 4.0 0.00 0.04 0.04 70 1015.9
20260904145944 81 109 0.0 0.0 0.00 0.04 0.04 72 1016.1
20260904145440 80 21 1.0 2.0 0.00 0.04 0.04 72 1016.1
20260904144935 80 282 4.0 4.0 0.00 0.04 0.04 71 1016.1
20260904144431 80 328 4.0 6.0 0.00 0.04 0.04 72 1016.0
20260904143926 80 349 3.0 3.0 0.00 0.04 0.04 72 1016.0
20260904143423 80 1 4.0 6.0 0.00 0.04 0.04 72 1016.0
20260904142919 80 305 3.0 4.0 0.00 0.04 0.04 74 1016.2
20260904142416 80 103 2.0 2.0 0.00 0.04 0.04 75 1016.1
20260904141914 80 267 0.0 1.0 0.00 0.04 0.04 74 1016.0
20260904141410 79 232 2.0 3.0 0.00 0.04 0.04 76 1016.1
20260904140906 79 216 2.0 3.0 0.00 0.04 0.04 76 1016.2
20260904140401 79 9 2.0 2.0 0.00 0.04 0.04 77 1016.1
20260904135900 80 215 2.0 2.0 0.00 0.04 0.04 77 1016.0
20260904135355 79 342 2.0 3.0 0.00 0.04 0.04 76 1015.9
20260904134851 79 209 0.0 1.0 0.00 0.04 0.04 79 1016.0
20260904134350 78 278 3.0 4.0 0.00 0.04 0.04 78 1015.8
20260904133845 78 1 3.0 3.0 0.00 0.04 0.04 79 1016.0
20260904133341 78 16 1.0 2.0 0.00 0.04 0.04 81 1015.8
20260904132840 77 212 0.0 0.0 0.00 0.04 0.04 82 1015.8
20260904132335 78 294 2.0 3.0 0.00 0.04 0.04 81 1016.1
20260904131830 77 290 0.0 1.0 0.00 0.04 0.04 82 1015.9
20260904131326 77 158 0.0 1.0 0.00 0.04 0.04 83 1015.9
20260904130825 76 63 2.0 3.0 0.00 0.04 0.04 83 1015.8
20260904130324 76 63 2.0 3.0 0.00 0.04 0.04 83 1015.8
20260904125820 76 237 2.0 3.0 0.00 0.04 0.04 83 1016.0
20260904125316 75 353 1.0 1.0 0.00 0.04 0.04 84 1016.1
20260904124815 75 349 2.0 3.0 0.00 0.04 0.04 84 1016.0
20260904124312 75 350 2.0 3.0 0.00 0.04 0.04 84 1015.8
20260904123807 75 19 3.0 3.0 0.00 0.04 0.04 84 1016.1
20260904123302 75 357 2.0 3.0 0.00 0.04 0.04 85 1016.2
20260904122757 74 237 0.0 1.0 0.00 0.04 0.04 86 1016.1
20260904122256 74 11 4.0 4.0 0.00 0.04 0.04 86 1015.9
20260904121752 74 312 2.0 2.0 0.00 0.04 0.04 87 1016.0
20260904121248 73 202 0.0 0.0 0.00 0.04 0.04 88 1015.9
20260904120744 73 28 2.0 3.0 0.00 0.04 0.04 88 1016.0
20260904120240 73 233 0.0 0.0 0.00 0.04 0.04 89 1015.9
20260904115735 73 236 0.0 0.0 0.00 0.04 0.04 89 1016.0
20260904115230 72 326 1.0 3.0 0.00 0.04 0.04 90 1016.1
20260904114725 72 306 1.0 2.0 0.00 0.04 0.04 91 1016.0
20260904114224 71 250 2.0 2.0 0.00 0.04 0.04 92 1016.0
20260904113720 71 11 1.0 1.0 0.00 0.04 0.04 93 1015.8
20260904113219 71 235 0.0 1.0 0.00 0.04 0.04 94 1015.7
20260904112714 71 234 1.0 1.0 0.00 0.04 0.04 94 1015.8
20260904112209 70 222 0.0 0.0 0.00 0.04 0.04 94 1015.8
20260904111705 70 218 0.0 0.0 0.00 0.04 0.04 94 1015.7
20260904111201 70 231 1.0 2.0 0.00 0.04 0.04 94 1015.5
20260904110656 70 228 0.0 0.0 0.00 0.04 0.04 94 1015.5
20260904110155 70 225 0.0 0.0 0.00 0.04 0.04 94 1015.4
20260904105650 70 220 0.0 0.0 0.00 0.04 0.04 94 1015.5
20260904105145 70 270 1.0 1.0 0.00 0.04 0.04 95 1015.6
20260904104641 70 309 0.0 1.0 0.00 0.04 0.04 95 1015.5
20260904104136 70 337 2.0 3.0 0.00 0.04 0.04 95 1015.3
20260904103632 70 349 2.0 2.0 0.00 0.04 0.04 95 1015.3
20260904103127 70 241 1.0 1.0 0.00 0.04 0.04 95 1015.3
20260904102624 71 290 2.0 2.0 0.00 0.04 0.04 95 1015.2
20260904102118 71 318 0.0 1.0 0.00 0.04 0.04 95 1015.1
20260904101615 71 247 1.0 1.0 0.00 0.04 0.04 95 1015.0
20260904101110 71 230 0.0 0.0 0.00 0.04 0.04 95 1015.2
20260904100606 71 227 0.0 0.0 0.00 0.04 0.04 95 1015.1
20260904100101 71 229 0.0 0.0 0.00 0.04 0.04 95 1014.8
20260904095555 71 229 0.0 0.0 0.00 0.04 0.04 95 1014.8
20260904095050 72 235 0.0 0.0 0.00 0.04 0.04 95 1014.8
20260904094545 72 232 0.0 0.0 0.00 0.04 0.04 95 1014.7
20260904094041 72 246 1.0 1.0 0.00 0.04 0.04 95 1014.7
20260904093538 72 233 0.0 0.0 0.00 0.04 0.04 95 1014.7
20260904093037 72 235 0.0 0.0 0.00 0.04 0.04 95 1014.7
20260904092533 72 227 0.0 0.0 0.00 0.04 0.04 95 1014.5
20260904092029 72 244 0.0 1.0 0.00 0.04 0.04 95 1014.5
20260904091525 72 225 0.0 0.0 0.00 0.04 0.04 95 1014.3
20260904091024 73 241 0.0 0.0 0.00 0.04 0.04 95 1014.7
20260904090520 73 226 0.0 0.0 0.00 0.04 0.04 95 1014.7
20260904090016 73 252 1.0 1.0 0.00 0.04 0.04 95 1014.9
20260904085511 73 235 0.0 0.0 0.00 0.04 0.04 95 1014.8
20260904085010 73 226 0.0 0.0 0.00 0.04 0.04 95 1014.6
20260904084506 73 222 0.0 1.0 0.00 0.04 0.04 95 1014.6
20260904084002 73 219 0.0 0.0 0.00 0.04 0.04 95 1014.9
20260904083458 73 235 0.0 0.0 0.00 0.04 0.04 95 1014.7
20260904082954 73 236 0.0 0.0 0.00 0.04 0.04 95 1014.5
20260904082449 73 230 0.0 0.0 0.00 0.04 0.04 95 1014.7
20260904081943 73 217 0.0 0.0 0.00 0.04 0.04 95 1014.4